Terminal Aerodrome Forecast
Issued by NWS

Home | Current Version | Previous Version | Text Only | Print | Product List | Glossary On
Versions: 1 2 3 4 5 6 7 8 9 10 11 12 13 14 15 16 17 18 19 20 21
000
FTUS44 KLZK 192300
TAFADF
TAF
KADF 192327Z 2000/2024 07003KT 6SM BR OVC010
     FM200400 06003KT 3SM BR OVC003
      TEMPO 2010/2014 1/2SM FG VV001
     FM201530 07003KT 5SM BR OVC007
     FM201700 10003KT P6SM OVC015
     FM202100 13004KT P6SM BKN020=

USA.gov is the U.S. government's official web portal to all federal, state and local government web resources and services.